User: anonymous   Login
Location: San Francisco
(37.7750°N, 122.4180°W)
Time: 23:04:49
(UTC-07:00)
Language:

GP-B - Orbit

View from above orbital plane
View from above orbital plane
View from above satellite
View from above satellite

Ground track
Ground track

The orbit data is extracted from the following two-line orbital elements,

1 28230U 04014A   17234.21649147 +.00000139 +00000-0 +16762-4 0  9994
2 28230 089.8455 120.7872 0002027 081.2348 278.9105 14.78554436176058
Epoch (UTC): 22 August 2017 05:11:44
Eccentricity: 0.0002027
inclination: 89.8455°
perigee height: 632 km
apogee height: 635 km
right ascension of ascending node: 120.7872°
argument of perigee: 81.2348°
revolutions per day: 14.78554436
mean anomaly at epoch: 278.9105°
orbit number at epoch: 17605

The dashed part of the orbit path shows where the satellite is in the earth's shadow,  

DLR